Regional Weather Roundup
Issued by NWS

Home | Current Version | Previous Version | Text Only | Print | Product List | Glossary On
Versions: 1 2 3 4 5 6 7 8 9 10 11 12 13 14 15 16 17 18 19 20 21 22 23 24 25 26 27 28 29 30 31 32 33 34 35 36 37 38 39 40 41 42 43 44 45 46 47 48 49 50
000
ASUS43 KMKX 291100
RWRWI

WISCONSIN REGIONAL WEATHER ROUNDUP
NATIONAL WEATHER SERVICE MILWAUKEE/SULLIVAN WI
600 AM CDT SAT AUG 29 2015

NOTE: "FAIR" INDICATES FEW OR NO CLOUDS BELOW 12,000 FEET WITH NO
SIGNIFICANT WEATHER AND/OR OBSTRUCTIONS TO VISIBILITY.

WIZ001-002-006>008-014>016-023>028-291200-
NORTHWEST WISCONSIN

CITY           SKY/WX    TMP DP  RH WIND       PRES   REMARKS
SUPERIOR ARPT  CLOUDY    59  57  94 CALM      30.03S
ASHLAND        MOCLDY    59  59 100 S9        30.00F
HAYWARD        LGT RAIN  57  54  89 E7        30.08F
SIREN          PTCLDY    55  54  96 CALM      30.08R
CUMBERLAND     PTCLDY    54  52  94 NE5       30.09R
RICE LAKE      PTCLDY    53  51  95 NE3       30.10R
CHETEK         MOCLDY   N/A N/A N/A NE3       30.09R
LADYSMITH      MOCLDY    54  52  95 NE3       30.12S
EAU CLAIRE     CLOUDY    55  54  96 NE6       30.07R FOG
MENOMONIE      CLOUDY    55  55  99 NE3       30.07R
NEW RICHMOND   CLEAR     52  52  99 NE5       30.06R
OSCEOLA        PTCLDY    54  54 100 CALM      30.08R
$$

WIZ003>005-009-010-017-018-291200-
NORTH CENTRAL WISCONSIN

CITY           SKY/WX    TMP DP  RH WIND       PRES   REMARKS
MANITOWISH WTR MOCLDY    53  53 100 SW5       30.08S
ARBOR VITAE    CLEAR     52  51  95 CALM      30.10R
WOODRUFF       CLEAR     52  51  95 CALM      30.10R
RHINELANDER    CLEAR     50  48  93 SW3       30.09F FOG
EAGLE RIVER    CLOUDY    54  53  99 CALM      30.08R
LAND O LAKES   CLEAR     55  53  92 SW3       30.07R
PHILLIPS       MOCLDY    50  50 100 CALM      30.10R FOG
TOMAHAWK       PTCLDY    49  48  97 CALM      30.11S FOG
MEDFORD        CLOUDY    54  54  99 E5        30.08S
MERRILL        CLOUDY    56  56 100 CALM      30.10S
$$

WIZ029-030-035-036-043>047-291200-
CENTRAL WISCONSIN

CITY           SKY/WX    TMP DP  RH WIND       PRES   REMARKS
WAUSAU         CLOUDY    58  55  90 CALM      30.07S
MOSINEE        LGT RAIN  57  57 100 NE6       30.09R
MARSHFIELD     CLOUDY    59  55  87 E6        30.07R FOG
STEVENS POINT  CLOUDY    56  56  99 E3        30.08R
WAUPACA        CLOUDY    60  59  97 NE5       30.06S FOG
WAUTOMA        NOT AVBL
WISC RAPIDS    CLOUDY    59  56  89 E7        30.07R
CAMP DOUGLAS   CLOUDY    59  59 100 E6        30.02S
$$

WIZ011>013-019>022-031-037>040-048>050-291200-
NORTHEAST WISCONSIN

CITY           SKY/WX    TMP DP  RH WIND       PRES   REMARKS
ANTIGO         CLOUDY    55  54  98 CALM      30.10F
SHAWANO        CLOUDY    59  57  93 CALM      30.09R
OCONTO         CLOUDY    57  57 100 CALM      30.08F
STURGEON BAY   CLOUDY    59  55  88 S6        30.12S
GREEN BAY      LGT RAIN  60  58  92 NE3       30.08S FOG
MANITOWOC      NOT AVBL
APPLETON       CLOUDY    59  59 100 VRB5      30.05F FOG
CLINTONVILLE   DRIZZLE   57  55  94 CALM      30.08R
OSHKOSH        CLOUDY    59  57  93 E7        30.06S
$$

WIZ032>034-041-042-053>061-291200-
SOUTHWEST WISCONSIN

CITY           SKY/WX    TMP DP  RH WIND       PRES   REMARKS
LA CROSSE      CLOUDY    61  57  87 N3        30.01R
SPARTA         CLOUDY    58  56  94 E5        30.02S
VIROQUA        CLOUDY    58  58 100 E5        30.00S
BOSCOBEL       CLOUDY    63  62  97 NE5       29.98R FOG
PRAIRIE DU CHI CLOUDY    63  62  96 CALM      29.96S
PLATTEVILLE    CLOUDY    64  64  99 S3        29.97S
$$

WIZ056-057-062-063-064-067-068-291200-
SOUTH CENTRAL WISCONSIN

CITY           SKY/WX    TMP DP  RH WIND       PRES   REMARKS
REEDSBURG      CLOUDY    58  58 100 NE3       30.00S FOG
BARABOO/DELLS  CLOUDY    58  57  96 E10       30.00S FOG
LONE ROCK      CLOUDY    63  61  93 NE7       29.99S FOG
MINERAL POINT  LGT RAIN  64  63  94 SE5       29.98S
MADISON        LGT RAIN  62  60  93 SE7       30.00S FOG
MIDDLETON      CLOUDY    64  64  99 SE6       30.01R
WATERTOWN      RAIN      59  59 100 E7        30.03F
MONROE         DRIZZLE   63  61  94 S10       29.99R
JANESVILLE     RAIN      63  61  94 SE6       30.00R
$$

WIZ051-052-058>065-066-070>072-291200-
SOUTHEAST WISCONSIN

CITY           SKY/WX    TMP DP  RH WIND       PRES   REMARKS
MILWAUKEE      LGT RAIN  60  58  92 NE7       30.06R FOG
WAUKESHA       LGT RAIN  57  57 100 NE13      30.06S
MILWAUKEE/TIMM HVY RAIN  57  54  88 NE8       30.07S
RACINE         LGT RAIN  64  61  90 N3        30.07R FOG
BURLINGTON     RAIN      62  61  97 S5        30.03F
KENOSHA        RAIN      65  62  90 S10       30.04S FOG
FOND DU LAC    LGT RAIN  59  58  96 E7        30.06S
SHEBOYGAN      LGT RAIN  57  56  96 E9        30.08S FOG
WEST BEND      RAIN      57  55  94 CALM      30.08R
JUNEAU         LGT RAIN  58  58  98 E7        30.06S
$$

LSZ147-162-291200-
LAKE SUPERIOR

STATION/POSITION TIME  TEMP    WIND        PRES    WAVE
                       AIR SEA DIR/SP/G            HT/PER
                 (UTC) (F)     (DEG/KT/KT) (MB)    (FT/S)
W MID LAKE BUOY  0950   58 55  240/ 23/ 29 1013.0F   3/ 4
DEVILS ISLAND    1000   60     190/ 19/ 25 1013.6F
PORT WING        1000   61     170/ 14     1015.6F
SAXON HARBOR     1000   61     190/ 10/ 12 1017.3F
$$

LMZ867-665-643>646-291200-
LAKE MICHIGAN

STATION/POSITION TIME  TEMP    WIND        PRES    WAVE
                       AIR SEA DIR/SP/G            HT/PER
                 (UTC) (F)     (DEG/KT/KT) (MB)    (FT/S)
CHAMBERS ISLAND  1000   59     200/  4/  8 1019.0S
S GREEN BAY BUOY 1000   61 62  180/  8/ 10 1020.1R
N MID LAKE BUOY  0950   62 64  230/ 12/ 14 1019.0R   3/ 4
NORTHPORT PIER   1000   60     160/  3/  5 1019.0S
SISTER BAY       1019   61        CALM       N/A
ALGOMA LAKESHORE 1014          210/  6/  7   N/A
SHEBOYGAN LAKESH 1000   53      20/  8/  9 1019.1S
PORT WASHINGTON  1040   56      40/ 14/ 17 1019.0S
ATWATER BUOY     1000   53 48  350/ 17/ 21 1018.7F
MILWAUKEE LAKESH 1000   58      20/  4/  5   N/A
S MID LAKE BUOY  0950   69 68  130/ 10/ 12 1017.1F   1/ 3
KENOSHA   LAKESH 1000   61     180/  6/  7 1016.9S
$$

TC  - TEMPERATURE IN CELSIUS
VSB - VISIBILITY IN STATUTE MILES
WCI - WIND CHILL INDEX
HX  - HEAT INDEX



USA.gov is the U.S. government's official web portal to all federal, state and local government web resources and services.